Powrót do katalogu

STARLINK-30959

AktywnyŁącznośćVLEO
NORAD 58442·PAYLOAD·🇺🇸 United States

Wystrzelony Nov 28, 2023 z Cape Canaveral Space Force Station

Loading…

Następne Przeloty (najbliższe 24 godziny)

TLE

ŚwieżeSource: CelesTrak SupGP

Epoka: Sep 15, 2026, 02:37 UTC

1 58442C 23183F   26258.10951389 -.00021180  00000+0 -76687-3 0  2587
2 58442  43.0043  51.5953 0001790 274.0240 205.3012 15.27600654    13

Śledź STARLINK-30959 w czasie rzeczywistym z AllMySat

Download on the App Store